Hourly Data Report for August 12, 2022

MUSKOKA
ONTARIO
Current Station Operator: NAVCAN

44°58'29.000" N
79°18'12.000" W
281.90 m
6115529
71532
YQA

Download Data

Hourly Data (August 2022)
Hourly Data Report for August 12, 2022
TIME
LST
Temp Definition
°C
Dew Point Definition
°C
Rel Hum Definition
%
Precip. Amount Definition
mm

Wind Dir Definition
10's deg

Wind Spd Definition
km/h
Visibility Definition
km
Stn Press Definition
kPa
Hmdx Definition


Wind Chill Definition


Weather Definition


00:00 10.6 10.3 98 0.0   0 16.1 98.67     LegendNANA
01:00 9.7 9.6 99 0.0   0 16.1 98.67     LegendNANA
02:00 8.8 8.7 99 0.0   0 16.1 98.68     LegendNANA
03:00 9.4 9.3 99 0.0 35 5 16.1 98.72     LegendNANA
04:00 9.4 9.3 99 0.0 33 8 16.1 98.73     LegendNANA
05:00 8.7 8.6 99 0.0 32 5 16.1 98.76     LegendNANA
06:00 7.8 7.7 99 0.0   0 16.1 98.82     LegendNANA
07:00 11.6 10.5 93 0.0 34 8 16.1 98.87     LegendNANA
08:00 15.2 9.9 70 0.0 35 8 16.1 98.92     LegendNANA
09:00 18.0 9.4 57 0.0 35 9 16.1 98.93     LegendNANA
10:00 19.8 6.9 43 0.0 35 11 16.1 98.95     LegendNANA
11:00 20.7 5.6 37 0.0 34 18 16.1 98.92     LegendNANA
12:00 21.4 5.8 36 0.0 34 17 16.1 98.86     LegendNANA
13:00 22.1 5.8 34 0.0 30 11 16.1 98.83     LegendNANA
14:00 22.6 6.0 34 0.0 27 13 16.1 98.81     LegendNANA
15:00 22.6 6.7 35 0.0 29 17 16.1 98.79     LegendNANA
16:00 22.8 6.8 35 0.0 30 13 16.1 98.75     LegendNANA
17:00 22.4 7.9 39 0.0 30 18 16.1 98.72     LegendNANA
18:00 20.9 8.6 45 0.0 30 17 16.1 98.72     LegendNANA
19:00 19.0 8.5 50 0.0 30 9 16.1 98.75     LegendNANA
20:00 16.9 8.7 58 0.0 28 5 16.1 98.76     LegendNANA
21:00 12.6 9.7 82 0.0   0 16.1 98.80     LegendNANA
22:00 11.1 9.4 89 0.0   0 16.1 98.80     LegendNANA
23:00 10.0 9.1 94 0.0 LegendMM 4 16.1 98.81     LegendNANA

Notes on Data Quality.

Legend

  • E = Estimated
  • M = Missing
  • NA = Not Available*
  • [empty] = Indicates an unobserved value
Date modified: